| time (UTC) | temp C | wind direction | speed KPH | gust KPH | rain 1hr cm | rain 24hr cm | rain mn cm | humidity % | barometer mb |
| 20260504212528 | 18 | 202 | 0.0 | 3.2 | 0.00 | 0.00 | 0.00 | 43 | 1005.5 |
| 20260504212027 | 18 | 202 | 1.6 | 3.2 | 0.00 | 0.00 | 0.00 | 41 | 1005.5 |
| 20260504211527 | 19 | 202 | 0.0 | 6.4 | 0.00 | 0.00 | 0.00 | 43 | 1005.5 |
| 20260504211028 | 19 | 201 | 0.0 | 11.3 | 0.00 | 0.00 | 0.00 | 41 | 1005.5 |
| 20260504210526 | 19 | 201 | 1.6 | 1.6 | 0.00 | 0.00 | 0.00 | 41 | 1005.5 |
| 20260504210026 | 19 | 248 | 0.0 | 8.0 | 0.00 | 0.00 | 0.00 | 41 | 1005.5 |
| 20260504205526 | 20 | 248 | 3.2 | 9.7 | 0.00 | 0.00 | 0.00 | 40 | 1005.5 |
| 20260504205025 | 19 | 259 | 4.8 | 14.5 | 0.00 | 0.00 | 0.00 | 40 | 1005.5 |
| 20260504204526 | 19 | 226 | 3.2 | 14.5 | 0.00 | 0.00 | 0.00 | 40 | 1005.5 |
| 20260504204025 | 20 | 219 | 1.6 | 12.9 | 0.00 | 0.00 | 0.00 | 40 | 1005.5 |
| 20260504203525 | 20 | 263 | 3.2 | 12.9 | 0.00 | 0.00 | 0.00 | 41 | 1005.6 |
| 20260504203025 | 20 | 202 | 6.4 | 12.9 | 0.00 | 0.00 | 0.00 | 39 | 1005.6 |
| 20260504202527 | 20 | 258 | 4.8 | 14.5 | 0.00 | 0.00 | 0.00 | 40 | 1005.5 |
| 20260504202023 | 20 | 259 | 4.8 | 16.1 | 0.00 | 0.00 | 0.00 | 39 | 1005.6 |
| 20260504201522 | 20 | 251 | 6.4 | 12.9 | 0.00 | 0.00 | 0.00 | 41 | 1005.6 |
| 20260504201022 | 20 | 209 | 4.8 | 11.3 | 0.00 | 0.00 | 0.00 | 41 | 1005.6 |
| 20260504200521 | 20 | 250 | 3.2 | 12.9 | 0.00 | 0.00 | 0.00 | 42 | 1005.7 |
| 20260504200021 | 20 | 201 | 4.8 | 12.9 | 0.00 | 0.00 | 0.00 | 41 | 1005.7 |
| 20260504195519 | 20 | 241 | 1.6 | 14.5 | 0.00 | 0.00 | 0.00 | 41 | 1005.7 |
| 20260504195019 | 20 | 252 | 4.8 | 9.7 | 0.00 | 0.00 | 0.00 | 43 | 1005.9 |
| 20260504194522 | 19 | 253 | 3.2 | 12.9 | 0.00 | 0.00 | 0.00 | 43 | 1005.9 |
| 20260504194118 | 19 | 236 | 6.4 | 12.9 | 0.00 | 0.00 | 0.00 | 43 | 1005.9 |
| 20260504193617 | 19 | 246 | 6.4 | 12.9 | 0.00 | 0.00 | 0.00 | 43 | 1006.0 |
| 20260504193017 | 19 | 235 | 4.8 | 11.3 | 0.00 | 0.00 | 0.00 | 47 | 1006.1 |
| 20260504192515 | 18 | 287 | 1.6 | 11.3 | 0.00 | 0.00 | 0.00 | 45 | 1006.1 |
| 20260504192017 | 18 | 236 | 3.2 | 11.3 | 0.00 | 0.00 | 0.00 | 48 | 1006.2 |
| 20260504191615 | 18 | 237 | 4.8 | 14.5 | 0.00 | 0.00 | 0.00 | 46 | 1006.1 |
| 20260504191016 | 18 | 235 | 8.0 | 17.7 | 0.00 | 0.00 | 0.00 | 44 | 1006.2 |
| 20260504190514 | 18 | 271 | 6.4 | 17.7 | 0.00 | 0.00 | 0.00 | 44 | 1006.1 |
| 20260504190014 | 18 | 260 | 8.0 | 14.5 | 0.00 | 0.00 | 0.00 | 45 | 1006.2 |
| 20260504185512 | 18 | 246 | 6.4 | 14.5 | 0.00 | 0.00 | 0.00 | 45 | 1006.2 |
| 20260504185011 | 17 | 265 | 4.8 | 14.5 | 0.00 | 0.00 | 0.00 | 49 | 1006.2 |
| 20260504184511 | 17 | 275 | 4.8 | 12.9 | 0.00 | 0.00 | 0.00 | 50 | 1006.4 |
| 20260504184014 | 16 | 192 | 3.2 | 12.9 | 0.00 | 0.00 | 0.00 | 50 | 1006.3 |
| 20260504183511 | 16 | 290 | 4.8 | 12.9 | 0.00 | 0.00 | 0.00 | 51 | 1006.4 |
| 20260504183010 | 17 | 302 | 3.2 | 16.1 | 0.00 | 0.00 | 0.00 | 48 | 1006.4 |
| 20260504182513 | 16 | 263 | 6.4 | 16.1 | 0.00 | 0.00 | 0.00 | 50 | 1006.5 |
| 20260504182009 | 16 | 234 | 4.8 | 12.9 | 0.00 | 0.00 | 0.00 | 53 | 1006.5 |
| 20260504181509 | 16 | 257 | 3.2 | 9.7 | 0.00 | 0.00 | 0.00 | 53 | 1006.6 |
| 20260504181009 | 15 | 250 | 3.2 | 9.7 | 0.00 | 0.00 | 0.00 | 54 | 1006.6 |
| 20260504180510 | 15 | 259 | 3.2 | 9.7 | 0.00 | 0.00 | 0.00 | 56 | 1006.7 |
| 20260504180008 | 15 | 318 | 0.0 | 3.2 | 0.00 | 0.00 | 0.00 | 58 | 1006.7 |
| 20260504175513 | 15 | 318 | 0.0 | 3.2 | 0.00 | 0.00 | 0.00 | 58 | 1006.6 |
| 20260504175012 | 15 | 318 | 0.0 | 6.4 | 0.00 | 0.00 | 0.00 | 60 | 1006.6 |
| 20260504174511 | 14 | 318 | 0.0 | 6.4 | 0.00 | 0.00 | 0.00 | 60 | 1006.6 |
| 20260504174008 | 14 | 261 | 1.6 | 6.4 | 0.00 | 0.00 | 0.00 | 60 | 1006.7 |
| 20260504173508 | 14 | 272 | 1.6 | 6.4 | 0.00 | 0.00 | 0.00 | 62 | 1006.7 |
| 20260504173008 | 14 | 243 | 1.6 | 8.0 | 0.00 | 0.00 | 0.00 | 61 | 1006.8 |
| 20260504172508 | 14 | 309 | 3.2 | 14.5 | 0.00 | 0.00 | 0.00 | 61 | 1006.9 |
| 20260504172008 | 14 | 318 | 3.2 | 14.5 | 0.00 | 0.00 | 0.00 | 58 | 1007.0 |
| 20260504171507 | 15 | 315 | 3.2 | 12.9 | 0.00 | 0.00 | 0.00 | 56 | 1007.0 |
| 20260504171007 | 15 | 315 | 4.8 | 19.3 | 0.00 | 0.00 | 0.00 | 53 | 1006.9 |
| 20260504170506 | 16 | 308 | 8.0 | 19.3 | 0.00 | 0.00 | 0.00 | 48 | 1006.6 |
| 20260504151053 | 15 | 204 | 3.2 | 6.4 | 0.00 | 0.00 | 0.00 | 50 | 1006.2 |
| 20260504150553 | 15 | 247 | 3.2 | 11.3 | 0.00 | 0.00 | 0.00 | 50 | 1006.4 |
| 20260504141039 | 13 | 257 | 3.2 | 14.5 | 0.00 | 0.00 | 0.00 | 58 | 1007.3 |
| 20260504140538 | 13 | 201 | 9.7 | 14.5 | 0.00 | 0.00 | 0.00 | 57 | 1007.4 |
| 20260504130525 | 10 | 211 | 4.8 | 14.5 | 0.00 | 0.00 | 0.00 | 64 | 1008.3 |
| 20260504110555 | 1 | 210 | 0.0 | 0.0 | 0.00 | 0.00 | 0.00 | 92 | 1009.0 |
| 20260504100538 | -1 | 210 | 0.0 | 1.6 | 0.00 | 0.00 | 0.00 | 93 | 1008.9 |
| 20260504081530 | -2 | 210 | 0.0 | 0.0 | 0.00 | 0.00 | 0.00 | 92 | 1008.7 |
| 20260504081030 | -2 | 210 | 0.0 | 0.0 | 0.00 | 0.00 | 0.00 | 92 | 1008.7 |
| 20260504080530 | -2 | 210 | 0.0 | 0.0 | 0.00 | 0.00 | 0.00 | 92 | 1008.6 |
| 20260504050511 | 0 | 210 | 0.0 | 3.2 | 0.00 | 0.00 | 0.00 | 87 | 1008.3 |
| 20260504050010 | 0 | 210 | 0.0 | 3.2 | 0.00 | 0.00 | 0.00 | 87 | 1008.3 |
| 20260504045509 | 0 | 210 | 0.0 | 3.2 | 0.00 | 0.00 | 0.00 | 87 | 1008.3 |
| 20260504045108 | 0 | 210 | 0.0 | 3.2 | 0.00 | 0.00 | 0.00 | 86 | 1008.3 |
| 20260504044513 | 0 | 210 | 0.0 | 1.6 | 0.00 | 0.00 | 0.00 | 86 | 1008.4 |
| 20260504044007 | 0 | 210 | 0.0 | 0.0 | 0.00 | 0.00 | 0.00 | 86 | 1008.3 |
| 20260504043505 | 0 | 210 | 0.0 | 0.0 | 0.00 | 0.00 | 0.00 | 86 | 1008.4 |
| 20260504043006 | 0 | 210 | 0.0 | 0.0 | 0.00 | 0.00 | 0.00 | 85 | 1008.4 |
| 20260504042504 | 0 | 210 | 0.0 | 0.0 | 0.00 | 0.00 | 0.00 | 85 | 1008.4 |
| 20260504042003 | 0 | 210 | 0.0 | 0.0 | 0.00 | 0.00 | 0.00 | 85 | 1008.3 |
| 20260504041502 | 0 | 210 | 0.0 | 0.0 | 0.00 | 0.00 | 0.00 | 85 | 1008.3 |
| 20260504041002 | 0 | 210 | 0.0 | 3.2 | 0.00 | 0.00 | 0.00 | 84 | 1008.3 |
| 20260504040501 | 0 | 210 | 0.0 | 3.2 | 0.00 | 0.00 | 0.00 | 84 | 1008.3 |
| 20260504040117 | 0 | 210 | 0.0 | 3.2 | 0.00 | 0.00 | 0.00 | 83 | 1008.3 |
| 20260504035602 | 0 | 210 | 0.0 | 0.0 | 0.00 | 0.00 | 0.00 | 83 | 1008.3 |
| 20260504035059 | 0 | 210 | 0.0 | 1.6 | 0.00 | 0.00 | 0.00 | 83 | 1008.2 |
| 20260504034610 | 1 | 210 | 0.0 | 1.6 | 0.00 | 0.00 | 0.00 | 83 | 1008.2 |
| 20260504034056 | 1 | 210 | 0.0 | 0.0 | 0.00 | 0.00 | 0.00 | 83 | 1008.2 |
| 20260504033558 | 1 | 210 | 0.0 | 3.2 | 0.00 | 0.00 | 0.00 | 83 | 1008.2 |
| 20260504033056 | 1 | 210 | 0.0 | 1.6 | 0.00 | 0.00 | 0.00 | 83 | 1008.1 |
| 20260504032554 | 1 | 210 | 0.0 | 1.6 | 0.00 | 0.00 | 0.00 | 82 | 1008.1 |
| 20260504032053 | 1 | 210 | 0.0 | 0.0 | 0.00 | 0.00 | 0.00 | 81 | 1008.0 |
| 20260504031553 | 1 | 210 | 0.0 | 0.0 | 0.00 | 0.00 | 0.00 | 81 | 1008.1 |
| 20260504031052 | 1 | 210 | 0.0 | 3.2 | 0.00 | 0.00 | 0.00 | 81 | 1008.1 |
| 20260504030551 | 1 | 210 | 0.0 | 3.2 | 0.00 | 0.00 | 0.00 | 81 | 1008.1 |
| 20260504030051 | 1 | 210 | 0.0 | 3.2 | 0.00 | 0.00 | 0.00 | 80 | 1008.1 |
| 20260504025552 | 1 | 210 | 0.0 | 4.8 | 0.00 | 0.03 | 0.00 | 80 | 1008.1 |
| 20260504025050 | 2 | 210 | 0.0 | 4.8 | 0.00 | 0.03 | 0.00 | 80 | 1008.2 |
| 20260504024549 | 2 | 209 | 0.0 | 4.8 | 0.00 | 0.03 | 0.00 | 80 | 1008.1 |
| 20260504024048 | 2 | 209 | 1.6 | 4.8 | 0.00 | 0.03 | 0.00 | 80 | 1008.1 |
| 20260504023547 | 2 | 252 | 0.0 | 4.8 | 0.00 | 0.03 | 0.00 | 79 | 1008.2 |
| 20260504023046 | 2 | 252 | 1.6 | 3.2 | 0.00 | 0.03 | 0.00 | 77 | 1008.2 |
| 20260504022545 | 2 | 252 | 0.0 | 0.0 | 0.00 | 0.03 | 0.00 | 78 | 1008.2 |
| 20260504022045 | 2 | 252 | 0.0 | 0.0 | 0.00 | 0.03 | 0.00 | 76 | 1008.1 |
| 20260504021547 | 2 | 252 | 0.0 | 0.0 | 0.00 | 0.03 | 0.00 | 74 | 1008.1 |
| 20260504021042 | 3 | 252 | 0.0 | 0.0 | 0.00 | 0.03 | 0.00 | 74 | 1008.1 |
| 20260504020543 | 3 | 252 | 0.0 | 0.0 | 0.00 | 0.03 | 0.00 | 73 | 1008.1 |
| 20260504020041 | 3 | 252 | 0.0 | 0.0 | 0.00 | 0.03 | 0.00 | 72 | 1008.1 |
| 20260504015540 | 3 | 252 | 0.0 | 0.0 | 0.00 | 0.05 | 0.00 | 71 | 1008.1 |
| 20260504015039 | 3 | 252 | 0.0 | 0.0 | 0.00 | 0.05 | 0.00 | 71 | 1008.0 |
| 20260504014541 | 3 | 252 | 0.0 | 0.0 | 0.00 | 0.05 | 0.00 | 70 | 1008.0 |
| 20260504014036 | 4 | 252 | 0.0 | 0.0 | 0.00 | 0.05 | 0.00 | 70 | 1008.0 |
| 20260504013535 | 4 | 252 | 0.0 | 0.0 | 0.00 | 0.05 | 0.00 | 68 | 1007.9 |
| 20260504013044 | 4 | 252 | 0.0 | 0.0 | 0.00 | 0.05 | 0.00 | 66 | 1008.0 |
| 20260504012535 | 5 | 252 | 0.0 | 0.0 | 0.00 | 0.05 | 0.00 | 66 | 1008.0 |
| 20260504012036 | 5 | 252 | 0.0 | 0.0 | 0.00 | 0.05 | 0.00 | 67 | 1007.9 |
| 20260504011537 | 5 | 252 | 0.0 | 0.0 | 0.00 | 0.05 | 0.00 | 64 | 1007.8 |
| 20260504011033 | 5 | 252 | 0.0 | 3.2 | 0.00 | 0.05 | 0.00 | 63 | 1007.8 |
| 20260504010533 | 5 | 252 | 0.0 | 3.2 | 0.00 | 0.05 | 0.00 | 63 | 1007.7 |
| 20260504010036 | 5 | 252 | 0.0 | 0.0 | 0.00 | 0.05 | 0.00 | 61 | 1007.7 |
| 20260504005533 | 6 | 252 | 0.0 | 3.2 | 0.00 | 0.05 | 0.00 | 59 | 1007.6 |
| 20260504005033 | 6 | 252 | 0.0 | 3.2 | 0.00 | 0.05 | 0.00 | 59 | 1007.6 |
| 20260504004533 | 6 | 252 | 0.0 | 3.2 | 0.00 | 0.05 | 0.00 | 59 | 1007.5 |
| 20260504004033 | 6 | 252 | 0.0 | 3.2 | 0.00 | 0.05 | 0.00 | 58 | 1007.4 |
| 20260504003534 | 6 | 252 | 0.0 | 3.2 | 0.00 | 0.05 | 0.00 | 57 | 1007.2 |
| 20260504003036 | 6 | 252 | 0.0 | 6.4 | 0.00 | 0.05 | 0.00 | 57 | 1007.2 |
| 20260504002532 | 7 | 252 | 0.0 | 6.4 | 0.00 | 0.05 | 0.00 | 56 | 1007.1 |
| 20260504002032 | 7 | 252 | 0.0 | 6.4 | 0.00 | 0.05 | 0.00 | 54 | 1007.0 |
| 20260504001538 | 7 | 263 | 3.2 | 6.4 | 0.00 | 0.05 | 0.00 | 55 | 1007.0 |
| 20260504001032 | 7 | 292 | 1.6 | 14.5 | 0.00 | 0.05 | 0.00 | 54 | 1007.0 |
| 20260504000531 | 7 | 227 | 1.6 | 9.7 | 0.00 | 0.05 | 0.00 | 54 | 1006.9 |
| 20260504000032 | 7 | 227 | 1.6 | 14.5 | 0.00 | 0.05 | 0.00 | 52 | 1006.8 |
| 20260503235530 | 7 | 252 | 3.2 | 8.0 | 0.00 | 0.08 | 0.00 | 51 | 1006.7 |
| 20260503235030 | 7 | 277 | 0.0 | 4.8 | 0.00 | 0.08 | 0.00 | 52 | 1006.6 |
| 20260503234531 | 8 | 278 | 1.6 | 4.8 | 0.00 | 0.08 | 0.00 | 52 | 1006.6 |
| 20260503234030 | 8 | 278 | 1.6 | 12.9 | 0.00 | 0.08 | 0.00 | 51 | 1006.5 |
| 20260503233531 | 8 | 273 | 4.8 | 14.5 | 0.00 | 0.08 | 0.00 | 49 | 1006.4 |
| 20260503233030 | 8 | 294 | 4.8 | 14.5 | 0.00 | 0.08 | 0.00 | 50 | 1006.4 |
| 20260503232529 | 8 | 267 | 3.2 | 14.5 | 0.00 | 0.08 | 0.00 | 48 | 1006.3 |
| 20260503232029 | 8 | 262 | 3.2 | 8.0 | 0.00 | 0.08 | 0.00 | 49 | 1006.2 |
| 20260503231529 | 8 | 284 | 1.6 | 6.4 | 0.00 | 0.08 | 0.00 | 49 | 1006.2 |
| 20260503231030 | 8 | 284 | 1.6 | 6.4 | 0.00 | 0.08 | 0.00 | 47 | 1006.2 |
| 20260503230530 | 8 | 276 | 0.0 | 11.3 | 0.00 | 0.08 | 0.00 | 46 | 1006.1 |
| 20260503230029 | 9 | 276 | 4.8 | 16.1 | 0.00 | 0.08 | 0.00 | 46 | 1006.0 |
| 20260503225529 | 9 | 267 | 4.8 | 20.9 | 0.00 | 0.10 | 0.00 | 45 | 1006.0 |
| 20260503225031 | 9 | 304 | 8.0 | 20.9 | 0.00 | 0.10 | 0.00 | 43 | 1005.9 |
| 20260503224530 | 9 | 255 | 3.2 | 16.1 | 0.00 | 0.10 | 0.00 | 44 | 1005.9 |
| 20260503224028 | 10 | 307 | 4.8 | 16.1 | 0.00 | 0.10 | 0.00 | 44 | 1005.7 |
| 20260503223527 | 10 | 271 | 8.0 | 16.1 | 0.00 | 0.10 | 0.00 | 45 | 1005.7 |
| 20260503223027 | 10 | 281 | 6.4 | 16.1 | 0.00 | 0.10 | 0.00 | 43 | 1005.7 |
| 20260503222528 | 10 | 309 | 3.2 | 24.1 | 0.00 | 0.10 | 0.00 | 42 | 1005.6 |
| 20260503222026 | 10 | 292 | 9.7 | 24.1 | 0.00 | 0.10 | 0.00 | 42 | 1005.4 |
| 20260503221526 | 10 | 360 | 9.7 | 20.9 | 0.00 | 0.10 | 0.00 | 41 | 1005.5 |
| 20260503221026 | 10 | 285 | 9.7 | 25.7 | 0.00 | 0.10 | 0.00 | 42 | 1005.4 |
| 20260503220525 | 10 | 328 | 9.7 | 25.7 | 0.00 | 0.10 | 0.00 | 39 | 1005.2 |
| 20260503220027 | 10 | 292 | 8.0 | 30.6 | 0.00 | 0.10 | 0.00 | 40 | 1005.2 |
| 20260503215524 | 10 | 319 | 11.3 | 30.6 | 0.00 | 0.13 | 0.00 | 39 | 1005.1 |
| 20260503215024 | 10 | 293 | 9.7 | 19.3 | 0.00 | 0.13 | 0.00 | 41 | 1005.1 |
| 20260503214527 | 11 | 284 | 8.0 | 19.3 | 0.00 | 0.13 | 0.00 | 42 | 1005.0 |
| 20260503214023 | 11 | 265 | 8.0 | 19.3 | 0.00 | 0.13 | 0.00 | 41 | 1005.0 |
| 20260503213523 | 11 | 297 | 4.8 | 19.3 | 0.00 | 0.13 | 0.00 | 40 | 1005.0 |
| 20260503213023 | 11 | 275 | 6.4 | 14.5 | 0.00 | 0.13 | 0.00 | 40 | 1004.9 |